Вернуться в каталог

ONEWEB-0591

АктивенСвязьPO
NORAD 54657·PAYLOAD·🇬🇧 United Kingdom

Запущен Dec 8, 2022 с Cape Canaveral Space Force Station

Loading…

Ближайшие Пролёты (ближайшие 24 часа)

TLE

СвежийSource: CelesTrak SupGP

Эпоха: Sep 14, 2026, 13:53 UTC

1 54657C 22166R   26257.57862685 -.00002699  00000+0 -65436-2 0  2573
2 54657  87.9270 226.1888 0002080  85.6851  23.9769 13.21827888    15

Отслеживайте ONEWEB-0591 в реальном времени с AllMySat

Download on the App Store